Back to catalog

STARLINK-3779

AliveCommunicationsVLEO
NORAD 52281·PAYLOAD·🇺🇸 United States

Launched Apr 21, 2022 from Cape Canaveral Space Force Station

Loading…

Next Passes (next 24 hours)

TLE

FreshSource: CelesTrak SupGP

Epoch: Sep 14, 2026, 22:17 UTC

1 52281C 22041W   26257.92895833 -.00023811  00000+0 -72272-3 0  2572
2 52281  53.1596 333.7738 0001128  86.0228 110.0002 15.33552079    16

Track STARLINK-3779 in real time with AllMySat

Download on the App Store